Miscellaneous Local Product
Issued by NWS Hastings, NE

Home | Current Version | Previous Version | Text Only | Print | Product List | Glossary On
Versions: 1 2 3 4 5 6 7 8 9 10 11 12 13 14 15 16 17 18 19 20 21 22 23 24 25 26 27 28 29 30 31 32 33 34 35 36 37 38 39 40 41 42 43 44 45 46 47 48 49 50
000
AXUS43 KGID 012102
MISGRI

GID CWA HOURLY WEATHER ROUNDUP
NATIONAL WEATHER SERVICE HASTINGS NE
400 PM CDT WED JUL 01 2015

NOTE: "FAIR" INDICATES FEW OR NO CLOUDS BELOW 12,000 FEET WITH NO
SIGNIFICANT WEATHER AND/OR OBSTRUCTIONS TO VISIBILITY.

...SOUTH CENTRAL NEBRASKA...

CITY           SKY/WX    TMP DP  RH WIND       PRES   REMARKS
GRAND ISLAND   SUNNY     82  68  62 E7        29.90F
HASTINGS       SUNNY     83  69  62 N6        29.89F
KEARNEY        SUNNY     81  70  69 NE7       29.91S
ORD            SUNNY     83  67  58 CALM      29.89F
YORK           MOSUNNY   82  70  65 E7        29.88S
AURORA         MOSUNNY   83  67  59 NE7       29.89S
LEXINGTON      SUNNY     90  65  44 NE7       29.92S HX  92
HOLDREGE       MOSUNNY   84  65  53 NE9       29.92S
HEBRON         MOSUNNY   87  67  51 NE6       29.84S HX  90

...NEBRASKA PANHANDLE...

CITY           SKY/WX    TMP DP  RH WIND       PRES   REMARKS
CHADRON        SUNNY     89  61  38 VRB6      29.98F
ALLIANCE       SUNNY     89  52  28 CALM      30.02F
SCOTTSBLUFF    SUNNY     94  48  20 S3        30.01F HX  90
SIDNEY         SUNNY     92  54  27 N6        30.05F HX  90

...WESTERN AND NORTH CENTRAL NEBRASKA...

CITY           SKY/WX    TMP DP  RH WIND       PRES   REMARKS
VALENTINE      MOSUNNY   87  63  44 N14       29.94R
AINSWORTH      MOSUNNY   85  66  53 NE5       29.92F
ONEILL         PTSUNNY   78  66  66 CALM      29.93S
BROKEN BOW     MOSUNNY   85  70  60 SE7       29.92S
IMPERIAL       MOSUNNY   91  58  32 N7        29.96F HX  90
NORTH PLATTE   SUNNY     94  55  26 N16       29.93R HX  92
MCCOOK         MOSUNNY   96  61  31 NE12G18   29.91S HX  96

...EASTERN NEBRASKA...

CITY           SKY/WX    TMP DP  RH WIND       PRES   REMARKS
NORFOLK        PTSUNNY   81  67  62 E10       29.89S
SO SIOUX CITY  PTSUNNY   76  66  71 E13       29.90S
TEKAMAH        MOSUNNY   83  66  56 NE12      29.88S
COLUMBUS       CLOUDY    81  66  61 E8        29.90F
ALBION         PTSUNNY   82  66  58 SE6       29.89F
OMAHA EPPLEY   MOSUNNY   84  68  58 E10       29.86S
OFFUTT AFB     PTSUNNY   85  68  56 E9        29.87S
MILLARD        MOSUNNY   83  69  62 E6        29.86S
LINCOLN        PTSUNNY   86  70  58 E7        29.84F HX  90
NEBRASKA CITY  PTSUNNY   85  64  49 SE7       29.84F
BEATRICE       PTSUNNY   84  71  64 E7        29.84S
FALLS CITY     PTSUNNY   84  74  71 E7        29.82F HX  91

...NORTHERN KANSAS...

CITY           SKY/WX    TMP DP  RH WIND       PRES   REMARKS
GOODLAND       SUNNY     95  48  20 N12       29.99S HX  91
HILL CITY      SUNNY    100  57  23 NE14G20   29.88F HX  99
NORTON         CLEAR     93  57  29 N9        29.90S HX  92
PHILLIPSBURG   SUNNY     97  63  32 N10       29.86F HX  98
SMITH CENTER   SUNNY     91  64  40 NE9       29.86S HX  93
HAYS           SUNNY     99  61  28 N22       29.85S HX  99
RUSSELL        SUNNY     98  62  30 NE18      29.82S HX  99
CONCORDIA      SUNNY     91  68  46 E8        29.82S HX  95
SALINA         SUNNY     94  62  34 CALM      29.79S HX  94
TOPEKA         MOSUNNY   91  69  48 SW8       29.78F HX  96



USA.gov is the U.S. government's official web portal to all federal, state and local government web resources and services.